Location: Unspecified
(0.0000°N, 0.0000°E)
Time: 11:17:46
(UTC+02:00)

Resurs 01 Rocket - Visible Passes

Search period start: 29 March 2017 00:00
Search period end: 08 April 2017 00:00
Orbit: 635 x 644 km, 98.2° (Epoch: 27 March)

Date Brightness Start Highest point End Pass type
(mag) Time Alt. Az. Time Alt. Az. Time Alt. Az.
29 Mar 4.0 22:23:12 19° NW 22:23:12 19° NW 22:24:39 10° NW visible
30 Mar 3.2 21:09:15 18° NE 21:09:15 18° NE 21:11:09 10° NNE visible
31 Mar 2.8 21:32:53 29° NNE 21:32:53 29° NNE 21:35:16 10° N visible
01 Apr 3.0 21:56:31 30° NNW 21:56:31 30° NNW 21:58:44 10° NNW visible
02 Apr 3.9 22:20:08 20° NW 22:20:08 20° NW 22:21:41 10° NW visible
03 Apr 3.3 21:06:12 17° NE 21:06:12 17° NE 21:07:51 10° NNE visible
03 Apr 4.8 22:43:46 10° WNW 22:43:46 10° WNW 22:43:51 10° WNW visible
04 Apr 2.9 21:29:49 27° NNE 21:29:49 27° NNE 21:32:06 10° N visible
05 Apr 3.0 21:53:26 30° NNW 21:53:26 30° NNW 21:55:39 10° NNW visible
06 Apr 3.8 22:17:03 21° NW 22:17:03 21° NW 22:18:41 10° NNW visible
07 Apr 3.4 21:03:06 15° NE 21:03:06 15° NE 21:04:32 10° NE visible
07 Apr 4.7 22:40:40 11° WNW 22:40:40 11° WNW 22:41:00 10° NW visible
